Time,TemperatureF,DewpointF,PressureIn,WindDirection,WindDirectionDegrees,WindSpeedMPH,WindSpeedGustMPH,Humidity,HourlyPrecipIn,Conditions,Clouds,dailyrainin,SoftwareType,DateUTC
2013-01-26 00:04:00,17.6,14.0,29.98,SSE,166,0.0,-999.0,86,-99.99,,,0.00,weatherlink.com 1.10,2013-01-26 05:04:00,
2013-01-26 00:19:00,17.7,14.0,29.98,SSE,166,0.0,-999.0,86,-99.99,,,0.00,weatherlink.com 1.10,2013-01-26 05:19:00,
2013-01-26 00:34:00,17.7,14.0,29.99,SSE,166,0.0,-999.0,86,-99.99,,,0.00,weatherlink.com 1.10,2013-01-26 05:34:00,
2013-01-26 00:49:00,17.9,14.0,29.99,SSE,166,0.0,-999.0,86,-99.99,,,0.00,weatherlink.com 1.10,2013-01-26 05:49:00,
2013-01-26 01:04:00,18.0,15.0,29.99,SSE,166,0.0,-999.0,86,-99.99,,,0.00,weatherlink.com 1.10,2013-01-26 06:04:00,
2013-01-26 01:19:00,18.2,15.0,29.99,SSE,166,0.0,-999.0,86,-99.99,,,0.00,weatherlink.com 1.10,2013-01-26 06:19:00,
2013-01-26 01:34:00,18.2,15.0,29.99,SSE,166,0.0,-999.0,86,-99.99,,,0.00,weatherlink.com 1.10,2013-01-26 06:34:00,
2013-01-26 01:49:00,18.2,15.0,29.99,SSE,166,1.0,-999.0,86,-99.99,,,0.00,weatherlink.com 1.10,2013-01-26 06:49:00,
2013-01-26 02:04:00,18.5,15.0,29.99,SSE,167,1.0,-999.0,86,-99.99,,,0.00,weatherlink.com 1.10,2013-01-26 07:04:00,
2013-01-26 02:19:00,18.5,15.0,30.00,SSW,199,0.0,-999.0,86,-99.99,,,0.00,weatherlink.com 1.10,2013-01-26 07:19:00,
2013-01-26 02:34:00,18.7,15.0,30.01,SSW,199,0.0,-999.0,86,-99.99,,,0.00,weatherlink.com 1.10,2013-01-26 07:34:00,
2013-01-26 02:49:00,18.7,15.0,30.01,SSW,199,0.0,-999.0,86,-99.99,,,0.00,weatherlink.com 1.10,2013-01-26 07:49:00,
2013-01-26 03:04:00,18.8,15.0,30.02,SSW,202,0.0,-999.0,86,-99.99,,,0.00,weatherlink.com 1.10,2013-01-26 08:04:00,
2013-01-26 03:19:00,19.0,16.0,30.02,SSW,202,0.0,-999.0,86,-99.99,,,0.00,weatherlink.com 1.10,2013-01-26 08:19:00,
2013-01-26 03:34:00,19.1,16.0,30.02,West,268,0.0,-999.0,86,-99.99,,,0.00,weatherlink.com 1.10,2013-01-26 08:34:00,
2013-01-26 03:49:00,19.1,16.0,30.03,West,268,1.0,-999.0,86,-99.99,,,0.00,weatherlink.com 1.10,2013-01-26 08:49:00,
2013-01-26 04:04:00,19.1,16.0,30.03,West,269,2.0,-999.0,86,-99.99,,,0.00,weatherlink.com 1.10,2013-01-26 09:04:00,
2013-01-26 04:19:00,19.1,16.0,30.03,West,271,2.0,-999.0,86,-99.99,,,0.00,weatherlink.com 1.10,2013-01-26 09:19:00,
2013-01-26 04:34:00,19.1,16.0,30.03,West,271,1.0,-999.0,86,-99.99,,,0.00,weatherlink.com 1.10,2013-01-26 09:34:00,
2013-01-26 04:49:00,19.3,16.0,30.04,West,271,2.0,-999.0,86,-99.99,,,0.00,weatherlink.com 1.10,2013-01-26 09:49:00,
2013-01-26 05:04:00,19.3,16.0,30.05,West,275,0.0,-999.0,86,-99.99,,,0.00,weatherlink.com 1.10,2013-01-26 10:04:00,
2013-01-26 05:19:00,19.1,16.0,30.05,West,275,1.0,-999.0,86,-99.99,,,0.00,weatherlink.com 1.10,2013-01-26 10:19:00,
2013-01-26 05:34:00,19.1,16.0,30.06,West,275,1.0,-999.0,86,-99.99,,,0.00,weatherlink.com 1.10,2013-01-26 10:34:00,
2013-01-26 05:49:00,19.1,15.0,30.06,WNW,301,0.0,-999.0,85,-99.99,,,0.00,weatherlink.com 1.10,2013-01-26 10:49:00,
2013-01-26 06:04:00,19.1,15.0,30.07,WNW,302,0.0,-999.0,85,-99.99,,,0.00,weatherlink.com 1.10,2013-01-26 11:04:00,
2013-01-26 06:19:00,19.1,15.0,30.08,WNW,301,0.0,-999.0,85,-99.99,,,0.00,weatherlink.com 1.10,2013-01-26 11:19:00,
2013-01-26 06:34:00,19.1,15.0,30.08,WNW,302,1.0,-999.0,84,-99.99,,,0.00,weatherlink.com 1.10,2013-01-26 11:34:00,
2013-01-26 06:49:00,19.1,15.0,30.10,WNW,302,0.0,-999.0,84,-99.99,,,0.00,weatherlink.com 1.10,2013-01-26 11:49:00,
2013-01-26 07:04:00,19.1,15.0,30.10,WNW,302,0.0,-999.0,84,-99.99,,,0.00,weatherlink.com 1.10,2013-01-26 12:04:00,
2013-01-26 07:19:00,19.1,15.0,30.11,WNW,300,2.0,-999.0,84,-99.99,,,0.00,weatherlink.com 1.10,2013-01-26 12:19:00,
2013-01-26 07:34:00,19.1,15.0,30.11,WNW,302,0.0,-999.0,83,-99.99,,,0.00,weatherlink.com 1.10,2013-01-26 12:34:00,
2013-01-26 07:49:00,19.1,15.0,30.12,WNW,301,2.0,-999.0,83,-99.99,,,0.00,weatherlink.com 1.10,2013-01-26 12:49:00,
2013-01-26 08:04:00,19.1,15.0,30.12,WNW,297,0.0,-999.0,83,-99.99,,,0.00,weatherlink.com 1.10,2013-01-26 13:04:00,
2013-01-26 08:19:00,19.1,15.0,30.13,WNW,299,0.0,-999.0,83,-99.99,,,0.00,weatherlink.com 1.10,2013-01-26 13:19:00,
2013-01-26 08:34:00,19.3,15.0,30.13,WNW,297,3.0,-999.0,82,-99.99,,,0.00,weatherlink.com 1.10,2013-01-26 13:34:00,
2013-01-26 08:49:00,19.3,15.0,30.14,WNW,298,0.0,-999.0,82,-99.99,,,0.00,weatherlink.com 1.10,2013-01-26 13:49:00,
2013-01-26 09:04:00,19.5,15.0,30.14,WNW,293,5.0,-999.0,82,-99.99,,,0.00,weatherlink.com 1.10,2013-01-26 14:04:00,
2013-01-26 09:19:00,19.6,15.0,30.15,West,277,2.0,-999.0,81,-99.99,,,0.00,weatherlink.com 1.10,2013-01-26 14:19:00,
2013-01-26 09:34:00,19.9,15.0,30.16,West,281,5.0,-999.0,81,-99.99,,,0.00,weatherlink.com 1.10,2013-01-26 14:34:00,
2013-01-26 09:49:00,20.1,15.0,30.16,West,271,2.0,-999.0,80,-99.99,,,0.00,weatherlink.com 1.10,2013-01-26 14:49:00,
2013-01-26 10:04:00,20.4,15.0,30.18,WNW,288,4.0,-999.0,80,-99.99,,,0.00,weatherlink.com 1.10,2013-01-26 15:04:00,
2013-01-26 10:19:00,20.6,15.0,30.18,WNW,295,4.0,-999.0,78,-99.99,,,0.00,weatherlink.com 1.10,2013-01-26 15:19:00,
2013-01-26 10:34:00,21.0,15.0,30.19,NW,307,0.0,-999.0,76,-99.99,,,0.00,weatherlink.com 1.10,2013-01-26 15:34:00,
2013-01-26 10:49:00,21.8,15.0,30.20,WNW,301,3.0,-999.0,74,-99.99,,,0.00,weatherlink.com 1.10,2013-01-26 15:49:00,
2013-01-26 11:04:00,21.8,14.0,30.21,NNW,328,4.0,-999.0,73,-99.99,,,0.00,weatherlink.com 1.10,2013-01-26 16:04:00,
2013-01-26 11:19:00,22.3,15.0,30.22,WNW,294,5.0,-999.0,73,-99.99,,,0.00,weatherlink.com 1.10,2013-01-26 16:19:00,
2013-01-26 11:34:00,22.5,14.0,30.22,WNW,301,6.0,-999.0,71,-99.99,,,0.00,weatherlink.com 1.10,2013-01-26 16:34:00,
2013-01-26 11:49:00,22.9,15.0,30.22,NNW,335,0.0,-999.0,71,-99.99,,,0.00,weatherlink.com 1.10,2013-01-26 16:49:00,
2013-01-26 12:04:00,23.4,15.0,30.22,NW,314,0.0,-999.0,69,-99.99,,,0.00,weatherlink.com 1.10,2013-01-26 17:04:00,
2013-01-26 12:19:00,23.7,14.0,30.22,NW,314,3.0,-999.0,67,-99.99,,,0.00,weatherlink.com 1.10,2013-01-26 17:19:00,
2013-01-26 12:34:00,23.1,13.0,30.23,NW,321,0.0,-999.0,66,-99.99,,,0.00,weatherlink.com 1.10,2013-01-26 17:34:00,
2013-01-26 12:49:00,24.0,14.0,30.23,NNE,23,3.0,-999.0,66,-99.99,,,0.00,weatherlink.com 1.10,2013-01-26 17:49:00,
2013-01-26 13:04:00,25.4,15.0,30.23,NW,314,4.0,-999.0,64,-99.99,,,0.00,weatherlink.com 1.10,2013-01-26 18:04:00,
2013-01-26 13:19:00,24.2,13.0,30.23,WNW,293,3.0,-999.0,63,-99.99,,,0.00,weatherlink.com 1.10,2013-01-26 18:19:00,
2013-01-26 13:34:00,24.8,13.0,30.23,NW,307,5.0,-999.0,62,-99.99,,,0.00,weatherlink.com 1.10,2013-01-26 18:34:00,
2013-01-26 13:49:00,25.1,14.0,30.23,NW,311,4.0,-999.0,62,-99.99,,,0.00,weatherlink.com 1.10,2013-01-26 18:49:00,
2013-01-26 14:04:00,24.3,12.0,30.23,NW,309,0.0,-999.0,59,-99.99,,,0.00,weatherlink.com 1.10,2013-01-26 19:04:00,
2013-01-26 14:19:00,24.2,12.0,30.24,NW,308,0.0,-999.0,60,-99.99,,,0.00,weatherlink.com 1.10,2013-01-26 19:19:00,
2013-01-26 14:34:00,25.8,12.0,30.24,NNW,334,0.0,-999.0,57,-99.99,,,0.00,weatherlink.com 1.10,2013-01-26 19:34:00,
2013-01-26 14:49:00,25.2,11.0,30.24,NW,305,0.0,-999.0,55,-99.99,,,0.00,weatherlink.com 1.10,2013-01-26 19:49:00,
2013-01-26 15:04:00,25.8,12.0,30.25,NNW,345,0.0,-999.0,55,-99.99,,,0.00,weatherlink.com 1.10,2013-01-26 20:04:00,
2013-01-26 15:19:00,26.1,12.0,30.25,WNW,290,5.0,-999.0,56,-99.99,,,0.00,weatherlink.com 1.10,2013-01-26 20:19:00,
2013-01-26 15:34:00,26.4,12.0,30.25,NW,320,1.0,-999.0,55,-99.99,,,0.01,weatherlink.com 1.10,2013-01-26 20:34:00,
2013-01-26 15:49:00,24.9,11.0,30.26,WNW,302,0.0,-999.0,57,-99.99,,,0.01,weatherlink.com 1.10,2013-01-26 20:49:00,
2013-01-26 16:04:00,24.9,11.0,30.27,NW,307,3.0,-999.0,57,-99.99,,,0.01,weatherlink.com 1.10,2013-01-26 21:04:00,
2013-01-26 16:19:00,26.0,13.0,30.27,WNW,288,0.0,-999.0,58,-99.99,,,0.01,weatherlink.com 1.10,2013-01-26 21:19:00,
2013-01-26 16:34:00,26.8,12.0,30.28,NNW,348,0.0,-999.0,55,-99.99,,,0.01,weatherlink.com 1.10,2013-01-26 21:34:00,
2013-01-26 16:49:00,25.7,13.0,30.28,North,350,0.0,-999.0,58,-99.99,,,0.01,weatherlink.com 1.10,2013-01-26 21:49:00,
2013-01-26 17:04:00,24.9,13.0,30.28,NNW,348,0.0,-999.0,60,-99.99,,,0.01,weatherlink.com 1.10,2013-01-26 22:04:00,
2013-01-26 17:26:00,24.0,12.0,30.30,North,356,0.0,-999.0,60,-99.99,,,0.01,weatherlink.com 1.10,2013-01-26 22:26:00,
2013-01-26 17:33:00,24.0,12.0,30.30,North,356,0.0,-999.0,60,-99.99,,,0.01,weatherlink.com 1.10,2013-01-26 22:33:00,
2013-01-26 17:48:00,23.9,12.0,30.30,North,356,0.0,-999.0,61,-99.99,,,0.01,weatherlink.com 1.10,2013-01-26 22:48:00,
2013-01-26 18:03:00,23.9,12.0,30.31,North,356,0.0,-999.0,61,-99.99,,,0.01,weatherlink.com 1.10,2013-01-26 23:03:00,
2013-01-26 18:18:00,23.7,12.0,30.32,North,356,0.0,-999.0,61,-99.99,,,0.01,weatherlink.com 1.10,2013-01-26 23:18:00,
2013-01-26 18:34:00,23.2,11.0,30.33,North,356,0.0,-999.0,61,-99.99,,,0.01,weatherlink.com 1.10,2013-01-26 23:34:00,
2013-01-26 18:48:00,22.5,11.0,30.33,North,356,0.0,-999.0,62,-99.99,,,0.01,weatherlink.com 1.10,2013-01-26 23:48:00,
2013-01-26 19:03:00,21.7,11.0,30.35,North,356,0.0,-999.0,63,-99.99,,,0.01,weatherlink.com 1.10,2013-01-27 00:03:00,
2013-01-26 19:18:00,20.6,11.0,30.35,North,356,0.0,-999.0,66,-99.99,,,0.01,weatherlink.com 1.10,2013-01-27 00:18:00,
2013-01-26 19:33:00,19.6,10.0,30.35,North,356,0.0,-999.0,67,-99.99,,,0.01,weatherlink.com 1.10,2013-01-27 00:33:00,
2013-01-26 19:48:00,18.4,10.0,30.35,North,356,0.0,-999.0,70,-99.99,,,0.01,weatherlink.com 1.10,2013-01-27 00:48:00,
2013-01-26 20:04:00,16.9,9.0,30.35,North,356,0.0,-999.0,71,-99.99,,,0.01,weatherlink.com 1.10,2013-01-27 01:04:00,
2013-01-26 20:19:00,16.1,9.0,30.35,North,356,0.0,-999.0,74,-99.99,,,0.01,weatherlink.com 1.10,2013-01-27 01:19:00,
2013-01-26 20:34:00,15.1,9.0,30.36,North,356,0.0,-999.0,75,-99.99,,,0.01,weatherlink.com 1.10,2013-01-27 01:34:00,
2013-01-26 20:49:00,14.0,8.0,30.35,North,356,0.0,-999.0,76,-99.99,,,0.01,weatherlink.com 1.10,2013-01-27 01:49:00,
2013-01-26 21:03:00,13.6,8.0,30.36,North,356,0.0,-999.0,78,-99.99,,,0.01,weatherlink.com 1.10,2013-01-27 02:03:00,
2013-01-26 21:19:00,13.6,8.0,30.36,North,356,0.0,-999.0,79,-99.99,,,0.01,weatherlink.com 1.10,2013-01-27 02:19:00,
2013-01-26 21:34:00,13.6,9.0,30.37,North,356,0.0,-999.0,80,-99.99,,,0.01,weatherlink.com 1.10,2013-01-27 02:34:00,
2013-01-26 21:49:00,14.0,9.0,30.37,North,356,0.0,-999.0,81,-99.99,,,0.01,weatherlink.com 1.10,2013-01-27 02:49:00,
2013-01-26 22:04:00,13.8,9.0,30.36,North,356,0.0,-999.0,81,-99.99,,,0.01,weatherlink.com 1.10,2013-01-27 03:04:00,
2013-01-26 22:19:00,13.3,9.0,30.36,North,356,0.0,-999.0,81,-99.99,,,0.01,weatherlink.com 1.10,2013-01-27 03:19:00,
2013-01-26 22:34:00,13.0,8.0,30.36,North,356,0.0,-999.0,81,-99.99,,,0.01,weatherlink.com 1.10,2013-01-27 03:34:00,
2013-01-26 22:49:00,12.6,8.0,30.36,North,356,0.0,-999.0,81,-99.99,,,0.01,weatherlink.com 1.10,2013-01-27 03:49:00,
2013-01-26 23:03:00,12.6,8.0,30.37,North,356,0.0,-999.0,82,-99.99,,,0.01,weatherlink.com 1.10,2013-01-27 04:03:00,
2013-01-26 23:19:00,12.4,8.0,30.38,North,356,0.0,-999.0,82,-99.99,,,0.01,weatherlink.com 1.10,2013-01-27 04:19:00,
2013-01-26 23:34:00,12.3,8.0,30.39,North,356,0.0,-999.0,82,-99.99,,,0.01,weatherlink.com 1.10,2013-01-27 04:34:00,
2013-01-26 23:48:00,12.1,8.0,30.39,North,356,0.0,-999.0,82,-99.99,,,0.01,weatherlink.com 1.10,2013-01-27 04:48:00,